Time,TemperatureF,DewpointF,PressureIn,WindDirection,WindDirectionDegrees,WindSpeedMPH,WindSpeedGustMPH,Humidity,HourlyPrecipIn,Conditions,Clouds,dailyrainin,SolarRadiationWatts/m^2,SoftwareType,DateUTC
2013-02-27 00:02:00,33.0,30.0,-100.00,NW,320,5.0,19.0,90,0.00,,,-99.99,0.000000,,2013-02-27 05:02:00,
2013-02-27 00:32:00,32.0,31.0,-100.00,NW,315,4.0,13.0,97,0.00,,,2.37,0.000000,,2013-02-27 05:32:00,
2013-02-27 00:42:00,32.0,31.0,-100.00,NW,315,4.0,13.0,97,0.00,,,2.37,0.000000,,2013-02-27 05:42:00,
2013-02-27 00:52:00,32.0,31.0,-100.00,NW,315,4.0,13.0,97,0.00,,,2.37,0.000000,,2013-02-27 05:52:00,
2013-02-27 01:02:00,32.0,31.0,-100.00,NW,315,4.0,13.0,97,0.00,,,2.37,0.000000,,2013-02-27 06:02:00,
2013-02-27 01:33:00,31.0,30.0,-100.00,NNW,340,8.0,18.0,97,0.00,,,2.32,0.000000,,2013-02-27 06:33:00,
2013-02-27 01:42:00,31.0,30.0,-100.00,NNW,340,8.0,18.0,97,0.00,,,2.32,0.000000,,2013-02-27 06:42:00,
2013-02-27 01:52:00,31.0,30.0,-100.00,NNW,340,8.0,18.0,97,0.00,,,2.32,0.000000,,2013-02-27 06:52:00,
2013-02-27 02:01:00,31.0,30.0,-100.00,NNW,340,8.0,18.0,97,0.00,,,2.32,0.000000,,2013-02-27 07:01:00,
2013-02-27 02:32:00,31.0,28.0,-100.00,NW,326,8.0,24.0,89,0.00,,,2.05,0.000000,,2013-02-27 07:32:00,
2013-02-27 02:42:00,31.0,28.0,-100.00,NW,326,8.0,24.0,89,0.00,,,2.05,0.000000,,2013-02-27 07:42:00,
2013-02-27 02:52:00,31.0,28.0,-100.00,NW,326,8.0,24.0,89,0.00,,,2.05,0.000000,,2013-02-27 07:52:00,
2013-02-27 03:01:00,31.0,28.0,-100.00,NW,326,8.0,24.0,89,0.00,,,2.05,0.000000,,2013-02-27 08:01:00,
2013-02-27 03:32:00,31.0,27.0,-100.00,WNW,293,11.0,29.0,86,0.00,,,1.73,0.000000,,2013-02-27 08:32:00,
2013-02-27 03:42:00,31.0,27.0,-100.00,WNW,293,11.0,29.0,86,0.00,,,1.73,0.000000,,2013-02-27 08:42:00,
2013-02-27 03:53:00,31.0,27.0,-100.00,WNW,293,11.0,29.0,86,0.00,,,1.73,0.000000,,2013-02-27 08:53:00,
2013-02-27 04:02:00,31.0,27.0,-100.00,WNW,293,11.0,29.0,86,0.00,,,1.73,0.000000,,2013-02-27 09:02:00,
2013-02-27 04:32:00,30.0,28.0,-100.00,NNW,332,10.0,23.0,91,0.00,,,1.49,0.000000,,2013-02-27 09:32:00,
2013-02-27 04:42:00,30.0,28.0,-100.00,NNW,332,10.0,23.0,91,0.00,,,1.49,0.000000,,2013-02-27 09:42:00,
2013-02-27 04:52:00,30.0,28.0,-100.00,NNW,332,10.0,23.0,91,0.00,,,1.49,0.000000,,2013-02-27 09:52:00,
2013-02-27 05:01:00,30.0,28.0,-100.00,NNW,332,10.0,23.0,91,0.00,,,1.49,0.000000,,2013-02-27 10:01:00,
2013-02-27 05:32:00,30.0,27.0,-100.00,NNW,334,12.0,26.0,89,0.00,,,1.22,0.000000,,2013-02-27 10:32:00,
2013-02-27 05:42:00,30.0,27.0,-100.00,NNW,334,12.0,26.0,89,0.00,,,1.22,0.000000,,2013-02-27 10:42:00,
2013-02-27 05:53:00,30.0,27.0,-100.00,NNW,334,12.0,26.0,89,0.00,,,1.22,0.000000,,2013-02-27 10:53:00,
2013-02-27 06:02:00,30.0,27.0,-100.00,NNW,334,12.0,26.0,89,0.00,,,1.22,0.000000,,2013-02-27 11:02:00,
2013-02-27 06:32:00,30.0,27.0,-100.00,NNW,339,9.0,22.0,90,0.00,,,0.81,0.000000,,2013-02-27 11:32:00,
2013-02-27 06:42:00,30.0,27.0,-100.00,NNW,339,9.0,22.0,90,0.00,,,0.81,0.000000,,2013-02-27 11:42:00,
2013-02-27 06:52:00,30.0,27.0,-100.00,NNW,339,9.0,22.0,90,0.00,,,0.81,0.000000,,2013-02-27 11:52:00,
2013-02-27 07:02:00,30.0,27.0,-100.00,NNW,339,9.0,22.0,90,0.00,,,0.81,0.000000,,2013-02-27 12:02:00,
2013-02-27 07:33:00,30.0,27.0,-100.00,NNW,340,8.0,24.0,88,0.00,,,0.50,0.000000,,2013-02-27 12:33:00,
2013-02-27 07:42:00,30.0,27.0,-100.00,NNW,340,8.0,24.0,88,0.00,,,0.50,0.000000,,2013-02-27 12:42:00,
2013-02-27 07:53:00,30.0,27.0,-100.00,NNW,340,8.0,24.0,88,0.00,,,0.50,0.000000,,2013-02-27 12:53:00,
2013-02-27 08:02:00,30.0,27.0,-100.00,NNW,340,8.0,24.0,88,0.00,,,0.50,0.000000,,2013-02-27 13:02:00,
2013-02-27 08:32:00,30.0,27.0,-100.00,NNW,346,8.0,26.0,90,0.00,,,0.24,13.000000,,2013-02-27 13:32:00,
2013-02-27 08:42:00,30.0,27.0,-100.00,NNW,346,8.0,26.0,90,0.00,,,0.24,13.000000,,2013-02-27 13:42:00,
2013-02-27 08:52:00,30.0,27.0,-100.00,NNW,346,8.0,26.0,90,0.00,,,0.24,13.000000,,2013-02-27 13:52:00,
2013-02-27 09:02:00,30.0,27.0,-100.00,NNW,346,8.0,26.0,90,0.00,,,0.24,13.000000,,2013-02-27 14:02:00,
2013-02-27 09:32:00,31.0,29.0,-100.00,NNW,344,8.0,16.0,91,0.00,,,0.17,56.000000,,2013-02-27 14:32:00,
2013-02-27 09:42:00,31.0,29.0,-100.00,NNW,344,8.0,16.0,91,0.00,,,0.17,56.000000,,2013-02-27 14:42:00,
2013-02-27 09:53:00,31.0,29.0,-100.00,NNW,344,8.0,16.0,91,0.00,,,0.17,56.000000,,2013-02-27 14:53:00,
2013-02-27 10:02:00,31.0,29.0,-100.00,NNW,344,8.0,16.0,91,0.00,,,0.17,56.000000,,2013-02-27 15:02:00,
2013-02-27 10:32:00,33.0,29.0,-100.00,NNW,339,6.0,19.0,84,0.01,,,0.12,263.000000,,2013-02-27 15:32:00,
2013-02-27 10:42:00,33.0,29.0,-100.00,NNW,339,6.0,19.0,84,0.01,,,0.12,263.000000,,2013-02-27 15:42:00,
2013-02-27 10:52:00,33.0,29.0,-100.00,NNW,339,6.0,19.0,84,0.01,,,0.12,263.000000,,2013-02-27 15:52:00,
2013-02-27 11:02:00,33.0,29.0,-100.00,NNW,339,6.0,19.0,84,0.01,,,0.12,263.000000,,2013-02-27 16:02:00,
2013-02-27 11:32:00,34.0,29.0,-100.00,NNW,338,6.0,13.0,81,0.03,,,0.07,398.000000,,2013-02-27 16:32:00,
2013-02-27 11:42:00,34.0,29.0,-100.00,NNW,338,6.0,13.0,81,0.03,,,0.07,398.000000,,2013-02-27 16:42:00,
2013-02-27 11:52:00,34.0,29.0,-100.00,NNW,338,6.0,13.0,81,0.03,,,0.07,398.000000,,2013-02-27 16:52:00,
2013-02-27 12:02:00,34.0,29.0,-100.00,NNW,338,6.0,13.0,81,0.03,,,0.07,398.000000,,2013-02-27 17:02:00,
2013-02-27 12:32:00,38.0,31.0,-100.00,NNW,342,6.0,12.0,75,0.00,,,0.05,900.000000,,2013-02-27 17:32:00,
2013-02-27 12:42:00,38.0,31.0,-100.00,NNW,342,6.0,12.0,75,0.00,,,0.05,900.000000,,2013-02-27 17:42:00,
2013-02-27 12:52:00,38.0,31.0,-100.00,NNW,342,6.0,12.0,75,0.00,,,0.05,900.000000,,2013-02-27 17:52:00,
2013-02-27 13:02:00,38.0,31.0,-100.00,NNW,342,6.0,12.0,75,0.00,,,0.05,900.000000,,2013-02-27 18:02:00,
2013-02-27 13:32:00,42.0,32.0,-100.00,NNW,327,8.0,15.0,68,0.00,,,0.04,1026.000000,,2013-02-27 18:32:00,
2013-02-27 13:42:00,42.0,32.0,-100.00,NNW,327,8.0,15.0,68,0.00,,,0.04,1026.000000,,2013-02-27 18:42:00,
2013-02-27 13:52:00,42.0,32.0,-100.00,NNW,327,8.0,15.0,68,0.00,,,0.04,1026.000000,,2013-02-27 18:52:00,
2013-02-27 14:02:00,42.0,32.0,-100.00,NNW,327,8.0,15.0,68,0.00,,,0.04,1026.000000,,2013-02-27 19:02:00,
2013-02-27 14:32:00,47.0,34.0,-100.00,WSW,253,6.0,15.0,61,0.00,,,0.04,982.000000,,2013-02-27 19:32:00,
2013-02-27 14:42:00,47.0,34.0,-100.00,WSW,253,6.0,15.0,61,0.00,,,0.04,982.000000,,2013-02-27 19:42:00,
2013-02-27 14:52:00,47.0,34.0,-100.00,WSW,253,6.0,15.0,61,0.00,,,0.04,982.000000,,2013-02-27 19:52:00,
2013-02-27 15:02:00,47.0,34.0,-100.00,WSW,253,6.0,15.0,61,0.00,,,0.04,982.000000,,2013-02-27 20:02:00,
2013-02-27 15:32:00,48.0,31.0,-100.00,West,267,6.0,13.0,52,0.00,,,-99.99,895.000000,,2013-02-27 20:32:00,
2013-02-27 15:42:00,48.0,31.0,-100.00,West,267,6.0,13.0,52,0.00,,,-99.99,895.000000,,2013-02-27 20:42:00,
2013-02-27 15:53:00,48.0,31.0,-100.00,West,267,6.0,13.0,52,0.00,,,-99.99,895.000000,,2013-02-27 20:53:00,
2013-02-27 16:02:00,48.0,31.0,-100.00,West,267,6.0,13.0,52,0.00,,,-99.99,895.000000,,2013-02-27 21:02:00,
2013-02-27 16:32:00,48.0,28.0,-100.00,West,278,6.0,13.0,46,0.00,,,-99.99,717.000000,,2013-02-27 21:32:00,
2013-02-27 16:42:00,48.0,28.0,-100.00,West,278,6.0,13.0,46,0.00,,,-99.99,717.000000,,2013-02-27 21:42:00,
2013-02-27 16:52:00,48.0,28.0,-100.00,West,278,6.0,13.0,46,0.00,,,-99.99,717.000000,,2013-02-27 21:52:00,
2013-02-27 17:02:00,48.0,28.0,-100.00,West,278,6.0,13.0,46,0.00,,,-99.99,717.000000,,2013-02-27 22:02:00,
2013-02-27 17:32:00,45.0,25.0,-100.00,WNW,291,9.0,16.0,46,0.00,,,0.04,488.000000,,2013-02-27 22:32:00,
2013-02-27 17:42:00,45.0,25.0,-100.00,WNW,291,9.0,16.0,46,0.00,,,0.04,488.000000,,2013-02-27 22:42:00,
2013-02-27 17:52:00,45.0,25.0,-100.00,WNW,291,9.0,16.0,46,0.00,,,0.04,488.000000,,2013-02-27 22:52:00,
2013-02-27 18:02:00,45.0,25.0,-100.00,WNW,291,9.0,16.0,46,0.00,,,0.04,488.000000,,2013-02-27 23:02:00,
2013-02-27 18:32:00,42.0,27.0,-100.00,WSW,254,6.0,16.0,56,0.00,,,0.04,150.000000,,2013-02-27 23:32:00,
2013-02-27 18:42:00,42.0,27.0,-100.00,WSW,254,6.0,16.0,56,0.00,,,0.04,150.000000,,2013-02-27 23:42:00,
2013-02-27 18:53:00,42.0,27.0,-100.00,WSW,254,6.0,16.0,56,0.00,,,0.04,150.000000,,2013-02-27 23:53:00,
2013-02-27 19:02:00,42.0,27.0,-100.00,WSW,254,6.0,16.0,56,0.00,,,0.04,150.000000,,2013-02-28 00:02:00,
2013-02-27 19:32:00,41.0,29.0,-100.00,West,270,6.0,21.0,61,0.00,,,0.04,6.000000,,2013-02-28 00:32:00,
2013-02-27 19:42:00,41.0,29.0,-100.00,West,270,6.0,21.0,61,0.00,,,0.04,6.000000,,2013-02-28 00:42:00,
2013-02-27 19:52:00,41.0,29.0,-100.00,West,270,6.0,21.0,61,0.00,,,0.04,6.000000,,2013-02-28 00:52:00,
2013-02-27 20:01:00,41.0,29.0,-100.00,West,270,6.0,21.0,61,0.00,,,0.04,6.000000,,2013-02-28 01:01:00,
2013-02-27 20:32:00,40.0,28.0,-100.00,WNW,303,6.0,14.0,63,0.00,,,0.04,0.000000,,2013-02-28 01:32:00,
2013-02-27 20:42:00,40.0,28.0,-100.00,WNW,303,6.0,14.0,63,0.00,,,0.04,0.000000,,2013-02-28 01:42:00,
2013-02-27 20:52:00,40.0,28.0,-100.00,WNW,303,6.0,14.0,63,0.00,,,0.04,0.000000,,2013-02-28 01:52:00,
2013-02-27 21:01:00,40.0,28.0,-100.00,WNW,303,6.0,14.0,63,0.00,,,0.04,0.000000,,2013-02-28 02:01:00,
2013-02-27 21:32:00,38.0,29.0,-100.00,NW,307,6.0,15.0,71,0.01,,,0.05,0.000000,,2013-02-28 02:32:00,
2013-02-27 21:42:00,38.0,29.0,-100.00,NW,307,6.0,15.0,71,0.01,,,0.05,0.000000,,2013-02-28 02:42:00,
2013-02-27 21:52:00,38.0,29.0,-100.00,NW,307,6.0,15.0,71,0.01,,,0.05,0.000000,,2013-02-28 02:52:00,
2013-02-27 22:02:00,38.0,29.0,-100.00,NW,307,6.0,15.0,71,0.01,,,0.05,0.000000,,2013-02-28 03:02:00,
2013-02-27 22:32:00,36.0,34.0,-100.00,NW,312,7.0,13.0,91,0.01,,,0.06,0.000000,,2013-02-28 03:32:00,
2013-02-27 22:42:00,36.0,34.0,-100.00,NW,312,7.0,13.0,91,0.01,,,0.06,0.000000,,2013-02-28 03:42:00,
2013-02-27 22:52:00,36.0,34.0,-100.00,NW,312,7.0,13.0,91,0.01,,,0.06,0.000000,,2013-02-28 03:52:00,
2013-02-27 23:02:00,36.0,34.0,-100.00,NW,312,7.0,13.0,91,0.01,,,0.06,0.000000,,2013-02-28 04:02:00,
2013-02-27 23:32:00,35.0,33.0,-100.00,NNW,327,9.0,17.0,91,0.01,,,0.07,0.000000,,2013-02-28 04:32:00,
2013-02-27 23:42:00,35.0,33.0,-100.00,NNW,327,9.0,17.0,91,0.01,,,0.07,0.000000,,2013-02-28 04:42:00,
2013-02-27 23:52:00,35.0,33.0,-100.00,NNW,327,9.0,17.0,91,0.01,,,0.07,0.000000,,2013-02-28 04:52:00,